[[{"header":{"parameterUnit":"m.s-1","parameterCategory":1,"la1":30.2991,"la2":30.254,"lo1":-89.0895,"lo2":-89.0444,"dy":0.0017,"dx":0.0017,"nx":28,"ny":28,"refTime":"2023-07-24T09:00:00:Z","depth":0,"parameterNumber":2,"parameterNumberName":"U-component_of_WINDS"},"data":[0,0,0,0,0,0,0,0,0,0,0,0,0,0,0,0,0,0,0,0,0,0,0,0,0,0,0,0,0,0,0,0,0,0,0,0,0,0,0,0,0,0,0,0,0,0,0,0,0,0,0,0,0,0,0,0,0,0,2.2554,2.2554,0,2.2583,2.2584,2.2584,2.2555,2.2554,2.2553,2.2552,2.2582,2.2583,2.2585,0,0,0,0,0,0,0,0,0,0,0,0,0,2.247,2.2472,2.2554,2.2554,2.2555,2.2583,2.2584,2.2584,2.2555,2.2554,2.2553,2.2551,2.2581,2.2583,2.2585,0,0,0,0,0,0,0,0,0,0,0,0,0,2.2504,2.2473,2.2554,2.2544,2.2543,2.2583,2.2584,2.2584,2.2556,2.2554,2.2552,2.2551,2.258,2.2583,2.2586,2.2637,0,0,2.2594,2.2595,0,0,0,0,0,0,0,0,2.2502,2.2507,2.2545,2.2545,2.2544,2.2564,2.2565,2.2602,2.2556,2.2551,2.2552,2.255,2.2577,2.258,2.2589,2.2639,2.264,2.2594,2.2596,2.2597,2.2598,0,0,0,0,0,0,0,2.25,2.2506,2.2566,2.2545,2.2545,2.2537,2.254,2.2572,2.2573,2.2551,2.2549,2.2553,2.2576,2.2587,2.259,2.264,2.2594,2.2597,2.2599,2.26,2.2729,2.2731,0,0,0,0,0,0,2.2499,2.2504,2.2565,2.2566,2.2518,2.254,2.2543,2.2559,2.2573,2.2573,2.2555,2.2552,2.2583,2.2587,2.2591,2.2649,2.2597,2.26,2.2602,2.2728,2.273,2.2732,0,0,0,0,0,0,2.2497,2.2504,2.2563,2.2535,2.2541,2.2543,2.2561,2.2561,2.2571,2.2575,2.2575,2.2565,2.2582,2.2587,2.2625,2.265,2.2601,2.2604,2.2726,2.2728,2.2731,2.2768,0,0,0,0,0,0,2.2495,2.2504,2.2524,2.2535,2.2543,2.2598,2.2563,2.2562,2.2576,2.2572,2.2585,2.2585,2.2581,2.2621,2.2628,2.2653,2.2606,2.2723,2.2727,2.273,2.2764,2.2771,2.2777,0,0,0,0,0,2.2492,2.2534,2.2525,2.2533,2.2569,2.26,2.2604,2.2598,2.2578,2.2597,2.26,2.2585,2.2646,2.2625,2.2633,2.2659,2.2722,2.2726,2.273,2.2761,2.277,2.2777,0,0,0,0,0,0,2.2527,2.2536,2.2526,2.2573,2.2586,2.2595,2.2619,2.2608,2.2626,2.2622,2.2613,2.2616,2.2656,2.2662,2.2638,2.2707,2.2681,2.2686,2.2702,2.271,2.2717,2.2714,2.2608,0,0,0,0,0,2.254,2.2565,2.2571,2.2612,2.2619,2.2618,2.2631,2.2625,2.2638,2.2643,2.2648,2.2661,2.2682,2.2697,2.2718,2.2765,2.2766,2.2787,2.2793,2.2799,2.2803,2.2825,2.2834,2.2745,2.2745,2.2745,0,0,2.2567,2.2575,2.2592,2.2619,2.2628,2.2653,2.2623,2.2651,2.2669,2.2647,2.2683,2.2687,2.27,2.2743,2.2762,2.2748,2.2828,2.2804,2.2808,2.2809,2.283,2.2839,2.2846,2.2748,2.2747,2.2747,0,0,2.2629,2.2639,2.2672,2.2681,2.2695,2.2694,2.2702,2.2712,2.2714,2.275,2.2733,2.2754,2.2793,2.2802,2.2811,2.2874,2.286,2.2881,2.2915,2.2937,2.2944,2.295,2.2969,2.2977,2.2886,2.2886,2.2886,0,2.2661,2.2698,2.2691,2.2719,2.2731,2.2712,2.2745,2.2754,2.2774,2.2782,2.2767,2.2813,2.2821,2.2863,2.2878,2.2888,2.2895,2.2879,2.2943,2.2949,2.2955,2.2973,2.2981,2.2888,2.2888,2.2888,2.2888,0,2.2735,2.2761,2.2787,2.2805,2.2819,2.285,2.2846,2.2862,2.2854,2.2854,2.2889,2.2898,2.2918,2.2928,2.2922,2.2969,2.296,2.2945,2.2917,2.2966,2.2983,2.299,2.2892,2.2891,2.289,2.289,0,0,2.282,2.2833,2.2842,2.2848,2.2861,2.288,2.2909,2.2929,2.2941,2.2955,2.2977,2.3009,2.2994,2.3005,2.2999,2.3019,2.3064,2.3,2.3001,2.301,2.3114,2.3123,2.3132,2.3056,2.3057,2.3058,2.3112,0,2.288,2.293,2.2923,2.297,2.2992,2.2974,2.2998,2.3008,2.3009,2.3027,2.3028,2.3049,2.3029,2.3035,2.3054,2.3055,2.3085,2.3051,2.3075,2.3076,2.3069,2.3141,2.3152,2.3202,2.3119,2.312,2.3121,0,2.2957,2.2972,2.3021,2.3027,2.3036,2.3058,2.3074,2.3092,2.3102,2.3101,2.3112,2.3102,2.313,2.3103,2.3139,2.3117,2.3126,2.3128,2.3129,2.3129,2.3099,2.3141,2.3218,2.3225,2.3132,2.3131,2.313,0,2.301,2.3043,2.3075,2.3082,2.3091,2.3106,2.3111,2.3119,2.3131,2.3145,2.3151,2.3169,2.3178,2.3191,2.3185,2.3167,2.3221,2.3195,2.3219,2.3219,2.323,2.3229,2.3307,2.324,2.324,2.324,2.324,0,2.3076,2.3106,2.3098,2.3118,2.3151,2.3142,2.3174,2.3177,2.3184,2.3203,2.3189,2.3207,2.32,2.3217,2.3213,2.3242,2.3247,2.3245,2.3243,2.3245,2.3245,2.3249,2.3245,2.3242,2.3242,2.3241,2.3241,0,2.314,2.3137,2.317,2.3176,2.3177,2.3201,2.3205,2.3223,2.3222,2.3246,2.3251,2.3249,2.3268,2.3264,2.3287,2.3283,2.3319,2.3314,2.3315,2.3313,2.3336,2.3333,2.3418,2.3428,2.3357,2.3358,2.3358,0,2.3181,2.3203,2.321,2.3221,2.3227,2.3246,2.3256,2.3249,2.326,2.3272,2.3288,2.3306,2.332,2.3351,2.3352,2.3367,2.3361,2.339,2.3364,2.3363,2.3358,2.3356,2.3357,2.3395,2.3395,2.3396,2.3397,0,2.3254,2.325,2.3266,2.3281,2.3293,2.3305,2.3315,2.3325,2.3318,2.3332,2.3351,2.3361,2.3382,2.3399,2.3414,2.3418,2.3405,2.3405,2.3411,2.3412,2.341,2.3408,2.3326,2.3403,2.3402,2.3402,2.3401,2.3401,2.3306,2.3323,2.333,2.3347,2.3353,2.3362,2.3378,2.3379,2.3394,2.341,2.3405,2.3426,2.3433,2.3451,2.3457,2.3472,2.3461,2.3471,2.3473,2.3474,2.3476,2.341,2.3475,2.3475,2.3475,2.3475,2.3475,0,2.3375,2.3377,2.3393,2.3407,2.342,2.3407,2.3417,2.3429,2.3447,2.3455,2.3468,2.3489,2.3505,2.3506,2.3521,2.3533,2.3527,2.3537,2.3534,2.3535,2.3486,2.3478,2.3541,2.3541,2.3541,2.3541,2.3541,2.3541,2.3412,2.344,2.3437,2.3467,2.347,2.3489,2.3496,2.3503,2.3509,2.3532,2.3545,2.3546,2.355,2.3565,2.3578,2.3578,2.3583,2.3594,2.3591,2.3545,2.3539,2.3532,2.3525,2.3596,2.3596,2.3638,2.3639,2.3639]},{"header":{"parameterUnit":"m.s-1","parameterCategory":1,"la1":30.2991,"la2":30.254,"lo1":-89.0895,"lo2":-89.0444,"dy":0.0017,"dx":0.0017,"nx":28,"ny":28,"refTime":"2023-07-24T09:00:00:Z","depth":0,"parameterNumber":3,"parameterNumberName":"V-component_of_WINDS"},"data":[0,0,0,0,0,0,0,0,0,0,0,0,0,0,0,0,0,0,0,0,0,0,0,0,0,0,0,0,0,0,0,0,0,0,0,0,0,0,0,0,0,0,0,0,0,0,0,0,0,0,0,0,0,0,0,0,0,0,0.332,0.3319,0,0.3281,0.328,0.328,0.3236,0.3235,0.3235,0.3234,0.3195,0.3195,0.3195,0,0,0,0,0,0,0,0,0,0,0,0,0,0.3356,0.3356,0.332,0.3319,0.3319,0.3281,0.328,0.328,0.3236,0.3235,0.3234,0.3234,0.3196,0.3195,0.3195,0,0,0,0,0,0,0,0,0,0,0,0,0,0.3331,0.3356,0.332,0.3292,0.3289,0.3281,0.328,0.3279,0.3236,0.3235,0.3234,0.3233,0.3196,0.3195,0.3194,0.321,0,0,0.3193,0.3192,0,0,0,0,0,0,0,0,0.3333,0.333,0.3297,0.3294,0.3291,0.3262,0.3279,0.3256,0.3236,0.3256,0.3234,0.3233,0.3218,0.3216,0.3211,0.3208,0.3207,0.3193,0.3192,0.3192,0.3192,0,0,0,0,0,0,0,0.3334,0.3331,0.3304,0.3296,0.3293,0.3282,0.3277,0.3274,0.3243,0.3255,0.3251,0.3247,0.3217,0.3212,0.321,0.3206,0.3193,0.3192,0.3192,0.3191,0.3213,0.3214,0,0,0,0,0,0,0.334,0.3333,0.3305,0.3303,0.331,0.3282,0.3277,0.3272,0.3243,0.3238,0.3248,0.3245,0.3213,0.321,0.3208,0.3224,0.3192,0.3191,0.3191,0.3212,0.3213,0.3214,0,0,0,0,0,0,0.3341,0.3338,0.3307,0.3317,0.3312,0.3282,0.3278,0.3272,0.3267,0.3238,0.3233,0.3249,0.3212,0.3209,0.3209,0.3222,0.3191,0.319,0.3211,0.3212,0.3214,0.3256,0,0,0,0,0,0,0.3342,0.3339,0.3345,0.3318,0.3312,0.3309,0.3279,0.3272,0.3266,0.3262,0.3237,0.3232,0.3211,0.3211,0.3209,0.322,0.319,0.321,0.3212,0.3213,0.3253,0.3259,0.3263,0,0,0,0,0,0.3344,0.3359,0.3345,0.3342,0.3319,0.331,0.3307,0.3282,0.3267,0.3272,0.3254,0.3233,0.3221,0.3211,0.3209,0.322,0.3209,0.3211,0.3213,0.3251,0.3258,0.3263,0,0,0,0,0,0,0.3389,0.3355,0.3339,0.3346,0.3331,0.3303,0.3309,0.329,0.328,0.3276,0.3246,0.3241,0.3245,0.3232,0.3223,0.3233,0.3212,0.3213,0.3241,0.3247,0.3252,0.3255,0.3189,0,0,0,0,0,0.34,0.3396,0.3366,0.3374,0.3368,0.334,0.3335,0.3317,0.3301,0.3294,0.3276,0.3261,0.3254,0.325,0.3241,0.3251,0.3244,0.3257,0.3262,0.3266,0.3269,0.3272,0.3277,0.3221,0.3221,0.3221,0,0,0.3422,0.3403,0.3402,0.3383,0.3369,0.3366,0.3335,0.3333,0.333,0.3294,0.3293,0.3279,0.3261,0.3265,0.3267,0.3255,0.3282,0.3269,0.3273,0.3272,0.3274,0.328,0.3284,0.3223,0.3222,0.3222,0,0,0.3461,0.3446,0.3451,0.3437,0.3417,0.3397,0.3399,0.3373,0.3362,0.336,0.3333,0.3329,0.3317,0.3304,0.3296,0.3328,0.3308,0.3326,0.3352,0.3355,0.3359,0.3363,0.3374,0.3378,0.3328,0.3328,0.3328,0,0.3491,0.3484,0.3456,0.3455,0.3447,0.3413,0.3418,0.3406,0.3384,0.338,0.3367,0.335,0.3335,0.3336,0.3343,0.3338,0.3338,0.3329,0.3361,0.3365,0.3368,0.3378,0.3382,0.333,0.333,0.333,0.333,0,0.3522,0.3518,0.3524,0.3503,0.3495,0.3497,0.3469,0.3465,0.3447,0.3429,0.3427,0.3407,0.3394,0.3393,0.3376,0.3391,0.3384,0.3367,0.3345,0.3376,0.3384,0.3388,0.3334,0.3333,0.3332,0.3331,0,0,0.359,0.3551,0.3554,0.3543,0.3517,0.3513,0.3513,0.3499,0.3496,0.3481,0.348,0.3469,0.3452,0.3443,0.3424,0.3427,0.3452,0.3409,0.3408,0.3418,0.3467,0.3481,0.3486,0.3438,0.3439,0.344,0.3469,0,0.3624,0.3621,0.3595,0.36,0.3595,0.3562,0.3561,0.3545,0.3528,0.3521,0.3502,0.3495,0.3473,0.3467,0.3469,0.3449,0.3462,0.3446,0.3437,0.3437,0.3443,0.349,0.3505,0.3534,0.3472,0.3472,0.3473,0,0.3664,0.365,0.3655,0.3627,0.3624,0.3624,0.3608,0.3602,0.3582,0.357,0.3558,0.3536,0.3533,0.3512,0.3507,0.3497,0.3492,0.3481,0.3482,0.3481,0.3458,0.349,0.3542,0.3546,0.3478,0.3478,0.3477,0,0.3713,0.3696,0.3695,0.3687,0.3655,0.3656,0.3642,0.3622,0.3614,0.36,0.3595,0.3581,0.3574,0.3564,0.3538,0.3525,0.3536,0.3513,0.3525,0.3526,0.353,0.353,0.3582,0.3526,0.3526,0.3526,0.3526,0,0.3754,0.3758,0.3717,0.3717,0.372,0.3689,0.3692,0.3676,0.3657,0.3653,0.3624,0.3621,0.3586,0.3579,0.3559,0.3558,0.3555,0.3544,0.3539,0.3547,0.3549,0.3544,0.3541,0.3527,0.3527,0.3527,0.3526,0,0.3809,0.3782,0.378,0.3749,0.3741,0.3744,0.3717,0.3716,0.3696,0.3691,0.3688,0.3657,0.3647,0.362,0.3603,0.3589,0.3594,0.3584,0.3601,0.3597,0.3611,0.3611,0.3662,0.3667,0.3608,0.3609,0.3609,0,0.3838,0.384,0.3808,0.3803,0.379,0.3783,0.3774,0.3743,0.3736,0.3713,0.3714,0.3701,0.369,0.3675,0.3651,0.3637,0.3627,0.3645,0.3625,0.3632,0.3627,0.3627,0.3627,0.3651,0.3651,0.3652,0.3652,0,0.3891,0.3876,0.3866,0.385,0.3841,0.3827,0.3812,0.381,0.3774,0.3768,0.3756,0.3747,0.3729,0.3717,0.3699,0.3685,0.3663,0.3659,0.3661,0.367,0.3679,0.3674,0.3614,0.3658,0.3658,0.3657,0.3657,0.3657,0.3933,0.3933,0.391,0.3899,0.3884,0.387,0.3866,0.3845,0.3835,0.3818,0.38,0.379,0.3769,0.3743,0.373,0.3722,0.371,0.3714,0.3715,0.3716,0.3719,0.368,0.3718,0.3718,0.3718,0.3718,0.3718,0,0.3984,0.3968,0.3958,0.3936,0.3927,0.3906,0.3887,0.3881,0.3873,0.3855,0.3843,0.383,0.3817,0.3791,0.3776,0.3774,0.3764,0.3771,0.3771,0.3768,0.3731,0.373,0.378,0.378,0.378,0.378,0.378,0.378,0.401,0.4008,0.3991,0.3981,0.3964,0.3954,0.3945,0.3932,0.3917,0.3903,0.3892,0.3874,0.3853,0.3835,0.3823,0.3815,0.3811,0.3822,0.3812,0.3777,0.3771,0.3766,0.3765,0.3821,0.3821,0.385,0.385,0.385]}]]